Weather History for KLRF - June, 2013

Change the Weather History Date:

Saturday, June 15, 2013

  Actual Average Record
Temperature  
Mean Temperature 76 °F -  
Max Temperature 90 °F 87 °F 98 °F (2011)
Min Temperature 64 °F 65 °F 55 °F (1978)
Cooling Degree Days 12    
Growing Degree Days 26 (Base 50)    
Moisture  
Dew Point 65 °F    
Average Humidity 68    
Maximum Humidity 94    
Minimum Humidity 41    
Precipitation  
Precipitation 0.00 in - - ()
Sea Level Pressure  
Sea Level Pressure 30.02 in    
Wind  
Wind Speed 2 mph (ESE)    
Max Wind Speed 8 mph    
Max Gust Speed -    
Visibility 10 miles    
Events      
Averages and records for this station are not official NWS values.
T = Trace of Precipitation, MM = Missing Value Source: NWS Daily Summary

Daily Weather History Graph

Daily Weather History Graph

Search for Another Location

Airport or City:

Trip Planner

Search our weather history database for the weather conditions in past years. The results will help you decide how hot, cold, wet, or windy it might be!

Date:

Astronomy

Jun. 15, 2013 Rise Set
Actual Time 5:54 AM CDT 8:24 PM CDT
Civil Twilight 5:24 AM CDT 8:53 PM CDT
Nautical Twilight 4:48 AM CDT 9:30 PM CDT
Astronomical Twilight 4:07 AM CDT 10:10 PM CDT
Moon 12:15 PM CDT (6/15) 12:12 AM CDT (6/15)
Length of Visible Light 15h 28m
Length of Day
14h 29m
Waxing Crescent, 40% of the Moon is Illuminated
Jun 15
Waxing Crescent
Jun 16
First Quarter
Jun 23
Full
Jun 29
Last Quarter
Jul 8
New

Hourly Weather History & Observations

Time (CDT) Temp. Heat Index Dew Point Humidity Pressure Visibility Wind Dir Wind Speed Gust Speed Precip Events Conditions
12:58 AM 69.4 °F - 65.5 °F 87% 30.03 in 10.0 mi Calm Calm - N/A   Clear
1:58 AM 68.0 °F - 64.6 °F 89% 30.02 in 10.0 mi Calm Calm - N/A   Clear
2:58 AM 66.9 °F - 64.0 °F 90% 30.02 in 10.0 mi Calm Calm - N/A   Clear
3:58 AM 66.0 °F - 64.0 °F 93% 30.01 in 10.0 mi Calm Calm - N/A   Clear
4:58 AM 64.9 °F - 63.1 °F 94% 30.01 in 10.0 mi Calm Calm - N/A   Clear
5:58 AM 64.0 °F - 62.4 °F 94% 30.02 in 10.0 mi Calm Calm - N/A   Clear
6:58 AM 67.1 °F - 63.9 °F 89% 30.03 in 10.0 mi Calm Calm - N/A   Clear
7:58 AM 71.6 °F - 65.7 °F 81% 30.05 in 10.0 mi East 2.3 mph - N/A   Clear
8:58 AM 79.5 °F - 64.8 °F 60% 30.06 in 10.0 mi Variable 2.3 mph - N/A   Clear
9:58 AM 82.2 °F 83.5 °F 63.7 °F 53% 30.07 in 10.0 mi SSE 8.1 mph - N/A   Clear
10:58 AM 84.7 °F 85.9 °F 63.7 °F 49% 30.06 in 10.0 mi SE 5.8 mph - N/A   Clear
11:58 AM 86.0 °F 87.1 °F 63.5 °F 47% 30.06 in 10.0 mi SE 5.8 mph - N/A   Clear
12:58 PM 87.6 °F 88.2 °F 62.8 °F 43% 30.04 in 10.0 mi Variable 5.8 mph - N/A   Clear
1:58 PM 89.2 °F 89.9 °F 62.4 °F 41% 30.02 in 10.0 mi East 8.1 mph - N/A   Partly Cloudy
2:58 PM 88.7 °F 89.4 °F 62.6 °F 42% 30.01 in 10.0 mi Variable 1.2 mph - N/A   Partly Cloudy
5:58 PM 89.6 °F 90.4 °F 63.1 °F 41% 29.96 in 10.0 mi East 4.6 mph - N/A   Clear
6:58 PM 86.9 °F 88.1 °F 64.0 °F 46% 29.96 in 10.0 mi ESE 4.6 mph - N/A   Partly Cloudy
7:58 PM 83.3 °F 85.3 °F 65.7 °F 55% 29.97 in 10.0 mi ESE 4.6 mph - N/A   Overcast
8:58 PM 78.6 °F - 68.2 °F 70% 29.98 in 10.0 mi Calm Calm - N/A   Mostly Cloudy
9:58 PM 77.2 °F - 67.8 °F 73% 30.01 in 10.0 mi Calm Calm - N/A   Overcast
10:58 PM 74.3 °F - 67.5 °F 79% 30.02 in 10.0 mi Calm Calm - N/A   Mostly Cloudy
11:58 PM 72.5 °F - 67.5 °F 84% 30.01 in 10.0 mi Calm Calm - N/A   Clear